Weather History for Homer, AK

Change the Weather History Date:

Saturday, November 5, 2011

  Actual Average Record
Temperature  
Mean Temperature 28 °F -  
Max Temperature 35 °F 39 °F 57 °F (1935)
Min Temperature 21 °F 26 °F 4 °F (1975)
Degree Days  
Heating Degree Days 37    
Moisture  
Dew Point 25 °F    
Average Humidity 79    
Maximum Humidity 93    
Minimum Humidity 64    
Precipitation  
Precipitation 0.00 in - - ()
Sea Level Pressure  
Sea Level Pressure 29.57 in    
Wind  
Wind Speed 5 mph (NNE)    
Max Wind Speed 9 mph    
Max Gust Speed -    
Visibility 9 miles    
Events Snow    
Averages and records for this station are not official NWS values.
T = Trace of Precipitation, MM = Missing Value Source: NWS Daily Summary

Daily Weather History Graph

Daily Weather History Graph

Search for Another Location

Airport:

Trip Planner

Search our weather history database for the weather conditions in past years. The results will help you decide how hot, cold, wet, or windy it might be!

Date:

Astronomy

Nov. 05, 2011 Rise Set
Actual Time 9:36 AM AKDT 6:01 PM AKDT
Civil Twilight 8:51 AM AKDT 6:46 PM AKDT
Nautical Twilight 8:01 AM AKDT 7:36 PM AKDT
Astronomical Twilight 7:13 AM AKDT 8:24 PM AKDT
Moon 4:17 PM AKDT (11/5) 3:54 AM AKDT (11/5)
Length of Visible Light 9h 55m
Length of Day
8h 24m
Waxing Gibbous, 79% of the Moon is Illuminated
Nov 5
Waxing Gibbous
Nov 10
Full
Nov 18
Last Quarter
Nov 24
New
Dec 2
First Quarter

Hourly Weather History & Observations

Time (AKDT) Temp. Windchill Dew Point Humidity Pressure Visibility Wind Dir Wind Speed Gust Speed Precip Events Conditions
12:53 AM 33.1 °F 27.7 °F 24.1 °F 70% 29.66 in 10.0 mi WNW 5.8 mph - N/A   Clear
1:53 AM 32.0 °F 24.2 °F 23.0 °F 69% 29.68 in 10.0 mi West 9.2 mph - N/A   Clear
2:53 AM 30.9 °F 26.2 °F 24.1 °F 76% 29.68 in 10.0 mi WNW 4.6 mph - N/A   Partly Cloudy
3:53 AM 30.0 °F 25.2 °F 23.0 °F 75% 29.69 in 10.0 mi NW 4.6 mph - N/A   Partly Cloudy
4:53 AM 30.0 °F - 21.0 °F 69% 29.70 in 10.0 mi Calm Calm - N/A   Clear
5:53 AM 30.9 °F - 19.9 °F 64% 29.70 in 10.0 mi Calm Calm - N/A   Scattered Clouds
6:53 AM 28.9 °F 25.2 °F 18.0 °F 64% 29.71 in 10.0 mi SE 3.5 mph - N/A   Clear
7:53 AM 25.0 °F 20.7 °F 18.0 °F 75% 29.72 in 10.0 mi NNE 3.5 mph - N/A   Clear
8:53 AM 24.1 °F 19.7 °F 19.0 °F 81% 29.71 in 10.0 mi North 3.5 mph - N/A   Clear
9:53 AM 21.9 °F 17.2 °F 19.0 °F 89% 29.72 in 10.0 mi NE 3.5 mph - N/A   Clear
10:53 AM 26.1 °F 17.6 °F 21.9 °F 84% 29.71 in 10.0 mi NE 8.1 mph - N/A   Clear
11:53 AM 30.9 °F 25.2 °F 25.0 °F 79% 29.71 in 10.0 mi ENE 5.8 mph - N/A   Clear
12:53 PM 32.0 °F 25.6 °F 25.0 °F 75% 29.68 in 10.0 mi ENE 6.9 mph - N/A   Clear
1:53 PM 32.0 °F 24.2 °F 27.0 °F 82% 29.66 in 10.0 mi ENE 9.2 mph - N/A   Scattered Clouds
2:53 PM 32.0 °F 24.2 °F 26.1 °F 79% 29.62 in 10.0 mi NE 9.2 mph - N/A   Overcast
3:53 PM 33.1 °F 25.5 °F 25.0 °F 72% 29.58 in 10.0 mi ENE 9.2 mph - N/A   Overcast
4:53 PM 33.1 °F 28.7 °F 24.1 °F 70% 29.55 in 10.0 mi North 4.6 mph - N/A   Overcast
5:53 PM 32.0 °F 27.5 °F 25.0 °F 75% 29.50 in 10.0 mi NE 4.6 mph - 0.00 in   Overcast
6:22 PM 32.0 °F 24.2 °F 24.8 °F 75% 29.46 in 2.5 mi NE 9.2 mph - 0.00 in Snow Light Snow
6:33 PM 30.2 °F 22.6 °F 26.6 °F 86% 29.45 in 3.0 mi NNE 8.1 mph - 0.00 in Snow Light Snow
6:43 PM 30.2 °F 25.4 °F 28.4 °F 93% 29.45 in 2.5 mi NE 4.6 mph - 0.00 in Snow Light Snow
6:50 PM 30.2 °F 24.3 °F 28.4 °F 93% 29.45 in 6.0 mi ENE 5.8 mph - 0.00 in Snow Light Snow
6:53 PM 30.9 °F 23.5 °F 28.0 °F 89% 29.45 in 8.0 mi ENE 8.1 mph - 0.00 in Snow Light Snow
7:53 PM 32.0 °F 28.7 °F 28.9 °F 88% 29.41 in 8.0 mi NNE 3.5 mph - 0.00 in Snow Light Snow
8:53 PM 32.0 °F 26.4 °F 30.0 °F 92% 29.36 in 7.0 mi ENE 5.8 mph - 0.00 in Snow Light Snow
9:53 PM 35.1 °F 29.3 °F 30.0 °F 82% 29.32 in 10.0 mi NE 6.9 mph - 0.00 in   Overcast
10:53 PM 35.1 °F - 30.0 °F 82% 29.28 in 10.0 mi Calm Calm - N/A   Overcast
11:53 PM 34.0 °F 31.0 °F 30.9 °F 89% 29.25 in 10.0 mi WNW 3.5 mph - N/A   Overcast